This demonstration page uses our WeatherBlox Daily Observations layout. Learn more.

Left ArrowRight Arrow

Hourly Observations for August 19, 2017

Temp ( °F °C ) Dew Point ( °F °C ) Humidity (%) Winds ( mph kmh ) Pressure ( in mb ) Visibility ( mi km ) Precip ( " mm )
12:51 am 00:51 Clear 80 26.7 38 3.3 22 22 WNW 8 13 29.80 1009 10 16 N/A
1:51 am 01:51 Clear 74 23.3 41 5 31 31 SSE 5 7 29.82 1010 10 16 N/A
2:51 am 02:51 Clear 70 21.1 43 6.1 38 38 N N/A 29.82 1010 10 16 N/A
3:51 am 03:51 Clear 70 21.1 43 6.1 38 38 N N/A 29.83 1010 10 16 N/A
4:51 am 04:51 Clear 69 20.6 44 6.7 41 41 ESE 5 7 29.83 1010 10 16 N/A
5:51 am 05:51 Sunny 69 20.6 43 6.1 39 39 NE 3 6 29.85 1011 10 16 N/A
6:51 am 06:51 Sunny 68 20 49 9.4 51 51 WNW 5 7 29.87 1012 10 16 N/A
7:51 am 07:51 Sunny 76 24.4 44 6.7 32 32 WNW 7 11 29.88 1012 10 16 N/A
8:51 am 08:51 Sunny 83 28.3 42 5.6 24 24 W 6 9 29.87 1012 10 16 N/A
9:51 am 09:51 Sunny 87 30.6 44 6.7 22 22 VRB 3 6 29.86 1011 10 16 N/A
10:51 am 10:51 Sunny 91 32.8 42 5.6 18 18 VRB 6 9 29.85 1011 10 16 N/A
11:51 am 11:51 Sunny 94 34.4 40 4.4 15 15 W 16 26 29.82 1010 10 16 N/A
12:51 pm 12:51 Sunny 95 35 39 3.9 14 14 W 14 22 29.79 1009 10 16 N/A
1:51 pm 13:51 Sunny 97 36.1 40 4.4 14 14 W 9 15 29.76 1008 10 16 N/A
2:51 pm 14:51 Sunny 97 36.1 40 4.4 14 14 WSW 8 13 29.73 1007 10 16 N/A
3:51 pm 15:51 Sunny 96 35.6 39 3.9 14 14 SW 9 15 29.72 1007 10 16 N/A
4:31 pm 16:31 Sunny 88 31.1 52 11.1 29 29 E 23 37 29.71 1006 10 16 N/A
4:51 pm 16:51 Sunny 86 30 51 10.6 30 30 E 25 41 29.79 1009 10 16 N/A
5:51 pm 17:51 Sunny 84 28.9 51 10.6 32 32 SSE 7 11 29.83 1010 10 16 N/A
6:51 pm 18:51 Sunny 84 28.9 51 10.6 32 32 SSW 10 17 29.83 1010 10 16 N/A
7:51 pm 19:51 Clear 83 28.3 50 10 32 32 N N/A 29.82 1010 10 16 N/A
8:51 pm 20:51 Partly Cloudy 84 28.9 49 9.4 30 30 N 6 9 29.80 1009 10 16 N/A
9:51 pm 21:51 Clear 80 26.7 56 13.3 44 44 SE 12 19 29.84 1010 10 16 N/A
10:51 pm 22:51 Clear 80 26.7 54 12.2 41 41 ESE 7 11 29.83 1010 10 16 N/A
11:51 pm 23:51 Clear 80 26.7 53 11.7 39 39 E 10 17 29.83 1010 10 16 N/A

Powered by AerisWeather